Location: Unspecified
(52.4292°N, 19.3359°E)
Time: 02:43:10
(UTC+02:00)

Vanguard 1 Rocket - Pass Details

Date: 25 May 2024
Orbit: 649 x 4221 km, 34.3° (Epoch: 13 June)

Event Time Altitude Azimuth Distance (km) Brightness Sun altitude
Rises 07:45:13 0° 209° (SSW) 8,449 12.1 26.4°
Reaches altitude 10° 07:52:58 10° 198° (SSW) 7,260 11.9 27.6°
Maximum altitude 08:09:43 26° 154° (SSE) 5,062 11.8 30.2°
Drops below altitude 10° 08:21:33 10° 106° (ESE) 5,102 12.7 32.0°
Sets 08:25:38 0° 94° (E) 5,617 12.5 32.6°
